Wind_Speed
43 43 41 38 37 37 37 34 33 30 29 29 32 31 27 26 20 20 19 19 16 19 23 25 30 26 21 15 17 20 14 13 12 12 11 12 16 12 10 13 16 12 11 9 20 30 35 25 28 15 23 30 42 36
35 35 36 35 36 37 37 36 33 35 31 27 26 25 25 25 18 21 22 19 18 19 20 20 23 16 17 17 15 13 14 11 14 11 14 13 13 13 14 15 20 15 12 15 24 10 18 24 32 26 22 27 29 45
33 32 32 32 30 30 32 32 32 33 32 31 26 25 26 21 17 20 19 19 18 16 17 18 15 15 17 16 14 13 17 14 12 12 11 13 15 16 18 18 18 20 15 16 20 29 25 24 25 22 19 20 26 35
32 29 26 27 26 27 27 26 26 27 29 27 26 25 25 17 15 20 20 16 15 15 15 15 15 16 14 13 13 13 12 12 12 13 13 14 18 16 17 20 18 23 21 20 19 26 25 22 25 23 21 21 22 23
31 28 26 25 27 25 23 21 20 20 21 23 24 25 20 13 16 19 19 19 15 15 16 16 12 14 14 11 12 11 11 11 12 13 14 16 17 13 14 15 14 18 17 19 21 23 22 22 20 24 26 23 23 23
30 28 28 27 27 26 26 22 20 20 21 24 27 26 16 16 16 20 20 20 20 17 9 9 14 13 13 11 10 11 11 12 12 12 13 13 11 12 11 12 11 14 14 16 16 15 20 22 19 21 25 25 24 26
28 27 28 28 29 28 28 28 22 22 22 26 28 21 17 18 18 20 21 16 17 15 15 12 14 16 14 12 12 12 11 10 10 10 10 11 8 10 10 10 12 12 14 14 15 14 16 18 20 19 22 24 25 29
30 29 28 28 28 27 28 29 28 24 24 26 27 21 19 19 18 22 22 21 21 20 19 21 19 18 15 14 13 13 13 10 9 9 9 9 7 9 9 11 12 13 13 15 15 15 15 13 15 16 19 22 24 26
30 28 27 25 26 26 28 27 27 28 27 27 28 20 19 19 22 19 23 26 28 23 17 21 19 12 16 16 16 15 12 10 7 8 9 8 8 8 9 11 11 12 13 14 14 15 16 15 15 16 16 17 19 24
27 26 25 24 26 27 30 31 29 28 29 27 26 24 22 18 18 22 26 29 30 25 20 23 23 15 22 19 18 16 13 9 9 7 8 7 7 8 9 9 10 12 13 14 14 14 15 15 16 17 18 18 17 18
25 25 26 26 26 28 29 30 29 25 27 25 23 25 21 22 25 28 29 30 29 26 21 29 30 21 23 21 20 14 13 10 9 7 7 7 8 7 7 7 9 10 12 14 15 17 18 18 17 17 17 18 19 19
25 26 27 27 26 27 26 25 27 26 25 25 26 23 21 25 27 28 30 31 30 27 21 31 27 19 20 22 20 15 13 11 9 7 8 8 6 6 7 8 10 12 13 15 17 18 20 19 20 21 20 19 19 20
25 26 26 26 26 25 27 25 26 25 24 28 26 23 29 26 27 27 27 27 26 24 22 33 30 29 22 23 20 16 13 11 10 8 9 8 7 9 11 11 12 12 13 14 16 19 22 21 20 22 22 21 19 19
24 25 26 25 26 25 23 21 25 20 24 21 21 25 25 26 23 21 22 25 26 25 26 34 31 26 23 22 19 17 14 11 10 11 12 14 13 16 16 15 15 14 13 15 16 18 21 21 21 24 20 18 18 19
25 25 26 25 23 22 25 27 23 27 25 25 24 26 21 25 23 24 23 24 24 25 30 36 33 27 26 22 20 17 14 11 11 11 13 7 10 13 14 17 17 17 18 19 17 19 20 21 20 20 18 18 20 19
24 24 22 23 21 16 15 24 21 27 20 24 23 23 18 19 24 23 20 16 27 25 30 35 31 29 25 22 20 16 14 12 14 17 14 9 13 16 16 16 17 18 23 27 22 18 20 22 21 18 20 21 18 18
22 20 19 20 16 11 23 18 33 25 11 27 22 12 6 8 9 15 21 19 35 36 36 38 34 30 23 23 19 15 13 15 18 20 16 12 17 17 18 18 14 18 18 18 18 19 20 22 22 19 21 20 18 18
18 17 19 17 16 28 24 25 26 23 14 20 22 15 14 10 9 9 25 30 28 25 32 34 33 29 26 22 22 19 14 17 14 19 17 16 19 19 20 23 23 24 22 20 20 19 19 22 23 21 22 22 21 20
16 16 15 15 19 26 21 19 23 25 21 14 14 19 14 24 19 21 14 26 36 34 41 39 31 28 24 23 23 19 19 18 19 18 21 19 21 22 23 25 27 29 27 22 21 21 21 23 25 23 22 22 24 22
16 15 23 13 11 29 22 11 21 19 16 19 21 17 17 22 26 20 25 30 24 30 35 32 23 23 24 24 18 19 22 21 22 24 24 23 21 22 24 28 29 30 26 27 24 24 24 24 25 24 23 25 24 23
16 24 27 23 14 14 16 13 14 18 19 19 20 20 17 19 26 30 28 34 27 37 37 30 25 20 19 27 25 28 21 17 22 27 28 28 26 24 25 31 30 31 34 37 30 26 26 24 25 25 24 25 24 27
18 26 23 21 20 18 18 15 13 11 11 13 15 17 15 16 26 31 30 33 33 27 27 28 27 27 27 24 23 25 27 26 28 29 30 30 31 30 32 34 32 32 37 32 26 25 23 21 24 26 27 25 25 27
23 23 17 17 18 17 18 18 15 12 13 16 12 14 16 16 22 27 31 31 31 30 28 27 27 27 28 27 27 29 22 29 30 31 32 32 34 34 37 36 35 32 29 33 20 22 21 20 23 25 26 24 24 24
24 18 15 14 13 15 16 15 13 12 11 13 14 14 15 15 17 20 24 31 32 29 27 25 25 27 29 29 29 28 30 29 29 32 33 29 33 30 30 31 32 28 31 30 34 38 28 22 22 24 25 22 22 22
17 16 15 14 16 16 16 14 12 9 8 8 9 11 11 10 10 12 17 20 23 26 24 21 22 23 24 24 25 26 26 30 34 26 31 27 28 30 34 36 31 28 26 30 33 29 26 25 24 24 23 23 22 21
18 17 15 16 18 18 17 16 13 8 7 4 2 5 4 11 13 14 14 16 15 18 16 15 17 17 13 15 17 15 20 23 21 24 28 33 31 32 31 30 26 25 30 29 26 25 24 28 28 25 24 21 21 20
17 16 14 16 17 17 15 15 14 11 6 5 4 9 15 14 13 11 14 22 23 16 12 13 15 11 13 17 14 15 18 22 26 28 28 29 33 25 25 24 28 33 22 28 29 24 27 27 28 24 23 31 27 18
15 16 16 19 20 20 19 16 14 12 10 7 7 9 10 7 4 7 9 9 19 11 12 11 11 10 11 14 14 17 19 21 21 22 24 26 28 28 28 28 26 24 25 25 25 29 31 26 21 26 27 32 34 18
14 16 18 19 22 22 20 16 13 12 9 9 11 11 10 8 8 5 4 7 5 4 1 3 6 8 11 13 16 18 19 21 22 23 23 18 17 18 20 21 22 22 22 22 20 23 24 28 32 33 36 36 28 27
13 15 19 22 24 21 19 16 13 8 8 13 14 8 6 2 4 8 4 2 3 4 6 7 9 11 10 14 17 19 19 16 11 11 13 15 17 18 18 18 18 18 19 20 18 16 19 21 22 24 25 23 26 24
15 17 18 19 19 17 17 12 13 15 12 13 14 14 6 2 4 4 3 3 5 7 7 8 9 13 14 12 11 8 11 12 14 17 19 19 20 19 19 19 18 17 17 17 17 16 15 15 15 15 16 17 17 19
13 14 15 16 15 17 19 15 12 13 8 12 9 10 5 6 7 7 5 5 5 4 6 9 11 11 7 6 8 11 14 15 16 16 17 17 18 19 19 19 19 18 18 16 15 14 13 13 13 13 12 11 11 12
12 12 10 10 12 13 13 15 14 9 8 8 6 8 10 4 2 1 2 1 4 7 8 6 4 5 8 10 12 14 15 15 15 16 16 17 17 19 20 20 20 19 18 17 16 15 14 13 11 10 9 9 10 10
Wind_Direction
279 279 280 280 281 279 280 280 281 284 291 282 270 276 278 274 277 273 261 253 252 240 252 248 245 259 251 234 232 253 258 246 252 253 244 236 257 261 263 271 278 283 239 241 246 236 252 261 228 209 233 233 224 229
279 277 275 277 278 277 274 274 273 278 281 284 270 265 264 268 271 266 255 252 245 249 265 255 256 248 248 250 248 247 242 234 252 248 245 243 256 262 273 270 278 274 269 258 256 258 241 254 264 284 281 262 246 229
276 276 275 276 280 280 275 272 270 271 271 270 264 256 258 263 267 260 251 242 241 255 254 239 245 234 239 242 235 230 236 245 237 243 257 263 267 275 278 269 270 283 264 261 264 276 266 269 266 267 268 265 256 252
275 277 276 274 269 273 279 278 278 274 266 262 255 253 260 256 260 255 250 250 247 248 250 247 240 229 232 229 225 231 238 240 240 248 253 261 272 278 273 268 272 271 280 274 268 267 267 266 271 274 267 264 263 266
277 276 273 270 268 269 275 283 281 282 269 260 252 253 259 255 250 250 243 236 232 236 242 231 236 229 235 226 220 223 236 241 241 254 262 266 267 282 269 272 273 269 275 273 270 272 277 268 265 267 269 265 262 262
273 275 274 271 267 264 270 282 288 277 273 263 252 255 243 238 244 247 237 226 219 230 226 225 200 227 227 216 221 223 230 242 254 261 267 274 274 275 272 269 264 267 274 277 280 279 272 273 266 261 262 263 261 260
271 274 273 272 272 266 266 270 276 274 270 265 260 246 239 242 240 243 241 239 225 218 208 194 238 212 210 210 218 226 235 246 260 270 273 282 282 273 269 269 277 269 272 275 286 288 280 283 278 271 265 263 261 258
272 272 272 271 273 270 268 264 263 268 269 267 266 237 239 232 233 234 225 214 222 219 222 203 210 200 204 209 222 225 236 239 245 266 283 291 299 287 280 280 282 281 276 277 281 291 296 298 288 287 275 268 264 262
269 271 270 269 272 273 272 267 262 260 263 267 269 235 234 236 233 231 223 221 219 221 222 206 194 217 207 217 223 225 231 244 254 277 285 287 295 305 284 279 284 287 286 285 284 286 290 293 293 294 291 284 276 272
264 266 266 267 266 265 267 271 270 262 253 261 255 224 223 222 222 223 220 220 223 220 212 194 194 205 217 217 223 222 231 243 258 276 283 275 278 282 295 305 302 290 288 290 290 290 290 291 290 289 291 292 291 286
259 261 261 260 261 261 265 267 269 266 256 250 241 223 217 221 223 222 220 219 222 217 209 195 198 208 215 219 224 222 228 242 260 281 266 259 257 254 270 287 296 298 297 295 294 295 294 293 293 293 292 290 290 291
254 256 259 261 262 263 264 262 261 257 251 238 232 217 220 227 228 229 228 223 218 211 203 200 207 206 228 220 224 224 234 246 255 267 251 249 254 268 287 292 299 295 294 293 294 294 295 300 300 298 292 291 291 289
254 259 260 262 259 259 262 264 254 248 250 232 204 220 220 228 231 231 230 225 217 204 204 201 206 215 206 221 219 221 234 243 243 255 242 242 259 288 294 289 297 309 307 305 299 295 295 295 299 303 300 292 289 289
256 255 256 254 260 258 250 238 229 254 229 187 201 221 224 231 231 230 220 212 207 197 204 198 205 215 207 217 220 222 231 235 248 256 256 260 273 285 291 295 285 289 299 309 301 302 301 300 295 300 304 291 289 291
253 250 251 249 259 256 244 247 250 215 173 238 222 228 219 219 217 210 207 209 196 193 195 196 208 211 214 214 221 223 226 232 243 255 253 265 280 299 297 297 292 277 285 284 295 296 299 299 302 302 298 292 293 288
245 248 253 257 258 259 227 197 195 196 232 209 210 201 234 219 217 212 205 204 186 184 200 203 208 214 212 213 221 225 225 233 247 260 263 267 284 298 301 305 289 289 287 293 275 292 295 294 300 299 297 302 295 288
245 247 255 256 264 249 200 215 182 208 225 200 201 188 183 246 229 215 203 201 188 182 200 206 210 213 212 218 221 224 228 237 250 262 271 279 278 291 296 306 286 302 297 297 294 287 290 291 295 302 302 303 297 293
238 247 243 244 207 195 191 183 194 217 201 198 201 203 219 185 153 207 188 186 163 184 202 214 212 214 216 220 221 225 234 237 259 274 291 282 288 289 293 294 297 309 286 290 298 286 292 290 289 293 302 304 303 299
235 224 207 219 221 214 197 174 191 203 215 221 197 194 209 197 192 176 171 193 183 186 206 214 214 217 219 226 228 235 245 248 261 276 282 285 286 289 289 297 298 302 298 285 286 284 283 289 289 290 297 299 299 303
201 187 184 170 191 190 191 183 195 200 214 226 224 220 224 212 203 205 205 210 215 209 207 219 220 223 226 231 241 257 258 262 271 274 280 281 285 291 292 293 291 307 291 306 292 282 275 287 289 291 301 305 299 298
175 181 189 188 163 179 188 208 203 213 218 220 219 215 217 214 210 196 186 204 203 209 213 217 216 221 232 238 237 246 243 267 276 277 280 286 290 295 293 297 295 297 299 298 290 276 273 281 289 281 289 293 294 303
182 183 177 176 186 191 191 197 197 201 199 215 213 215 217 215 211 210 211 211 218 222 224 226 225 229 238 246 247 263 263 277 280 284 285 286 295 296 292 296 297 286 302 280 285 275 266 274 284 283 292 293 290 299
182 171 176 183 187 185 193 195 194 186 179 167 183 218 223 220 214 213 216 218 218 223 227 232 236 239 247 250 250 272 277 270 275 280 279 282 285 294 295 291 294 296 297 248 270 256 272 284 279 284 288 288 291 298
165 162 172 186 184 181 191 194 193 189 187 193 208 215 225 224 226 229 230 228 228 232 240 244 244 244 247 252 258 261 264 267 271 279 272 279 291 294 293 293 293 305 293 251 266 282 272 293 284 284 286 288 293 298
165 170 177 176 167 169 168 162 157 159 171 181 198 208 208 217 228 225 220 218 221 225 230 236 240 244 247 250 255 262 269 283 284 263 302 305 302 298 294 294 294 295 271 268 276 275 285 284 287 283 279 281 287 293
165 164 163 160 164 164 164 159 160 169 156 149 227 208 211 224 219 217 222 223 234 236 232 236 246 251 257 264 261 277 275 284 294 297 308 306 300 293 291 283 285 282 276 278 276 280 284 284 286 286 284 283 285 289
165 160 160 159 162 162 165 165 167 169 221 212 260 183 202 203 208 215 213 214 220 207 219 230 243 246 249 271 281 280 293 301 301 297 293 293 299 305 307 290 289 307 302 273 284 278 267 273 282 287 284 266 254 262
164 163 164 167 166 162 154 151 156 156 166 188 137 139 155 155 164 219 229 208 166 186 205 218 240 255 269 287 288 289 293 297 301 301 301 300 300 306 310 310 308 299 290 285 285 274 260 260 273 290 283 292 237 275
172 171 170 170 170 164 161 166 165 165 165 163 169 153 93 92 137 154 283 11 67 88 134 280 301 296 293 292 292 295 297 301 303 303 307 316 328 330 325 321 315 311 306 296 277 266 265 279 282 271 267 276 279 300
158 166 167 168 168 170 176 172 174 167 188 167 147 155 136 159 208 199 222 281 336 328 307 289 292 302 303 304 304 303 303 309 323 330 332 332 331 330 330 339 343 337 323 315 307 292 278 277 274 276 277 275 278 287
138 145 154 165 172 182 188 169 132 145 155 172 164 147 148 300 239 209 221 259 281 285 290 303 311 308 308 310 311 332 330 331 333 331 327 326 328 332 334 335 337 337 335 330 321 314 306 296 287 278 276 273 271 269
150 155 162 171 180 183 195 199 199 201 165 113 161 176 230 300 188 180 219 272 302 307 307 312 317 316 335 344 335 336 334 329 325 326 329 331 332 333 336 338 341 342 342 340 336 332 326 317 307 297 291 281 275 271
167 167 163 167 178 187 190 196 201 214 232 248 245 265 253 198 79 316 319 349 330 327 327 336 350 335 330 336 334 329 327 327 331 334 336 337 338 338 340 340 341 341 340 340 339 338 334 330 326 318 310 298 293 292
Height
5767 5767 5767 5766 5766 5765 5765 5765 5765 5764 5763 5762 5762 5763 5763 5764 5764 5765 5766 5766 5766 5766 5765 5767 5768 5768 5770 5771 5774 5773 5775 5775 5775 5776 5777 5778 5775 5776 5777 5775 5776 5776 5776 5779 5778 5777 5778 5781 5780 5780 5785 5786 5791 5799
5755 5755 5754 5754 5754 5754 5753 5754 5754 5754 5754 5753 5753 5754 5754 5755 5757 5758 5758 5760 5760 5760 5761 5762 5762 5764 5767 5767 5769 5770 5771 5772 5772 5773 5773 5774 5774 5774 5774 5774 5772 5774 5775 5775 5770 5762 5771 5773 5773 5772 5775 5781 5784 5789
5745 5745 5744 5744 5744 5743 5742 5742 5742 5743 5743 5744 5744 5745 5747 5746 5749 5751 5753 5754 5754 5755 5756 5757 5759 5761 5763 5763 5765 5767 5766 5768 5770 5770 5771 5771 5771 5772 5771 5770 5770 5767 5770 5772 5771 5764 5766 5769 5768 5771 5771 5774 5775 5777
5735 5735 5734 5734 5735 5735 5734 5733 5733 5733 5733 5734 5736 5737 5739 5739 5743 5745 5747 5750 5750 5750 5751 5754 5755 5758 5760 5761 5762 5763 5765 5765 5767 5767 5768 5768 5767 5767 5766 5766 5767 5764 5765 5765 5765 5763 5764 5764 5763 5764 5766 5767 5769 5770
5726 5726 5725 5725 5727 5727 5727 5726 5725 5725 5725 5726 5728 5730 5731 5733 5737 5740 5742 5744 5744 5747 5747 5748 5752 5755 5756 5758 5759 5760 5762 5762 5763 5763 5763 5763 5763 5763 5761 5761 5761 5760 5760 5759 5758 5758 5758 5758 5760 5758 5758 5760 5763 5764
5717 5716 5716 5717 5718 5718 5719 5719 5718 5718 5718 5719 5721 5723 5726 5729 5731 5734 5737 5739 5738 5741 5744 5744 5747 5750 5753 5755 5756 5758 5759 5759 5760 5760 5759 5758 5759 5758 5757 5757 5756 5755 5755 5754 5753 5753 5752 5752 5753 5753 5753 5753 5754 5755
5707 5707 5707 5708 5709 5710 5711 5711 5711 5711 5711 5712 5713 5715 5720 5722 5725 5729 5732 5736 5736 5738 5741 5745 5746 5748 5750 5752 5754 5755 5756 5756 5757 5756 5755 5755 5755 5754 5754 5753 5752 5752 5751 5751 5749 5749 5748 5746 5746 5747 5747 5747 5748 5748
5698 5698 5698 5699 5700 5700 5702 5702 5703 5704 5704 5704 5707 5708 5712 5716 5719 5722 5727 5729 5731 5733 5735 5739 5743 5746 5748 5750 5751 5752 5752 5753 5754 5753 5753 5752 5752 5751 5751 5749 5749 5748 5747 5747 5746 5745 5743 5743 5741 5740 5740 5740 5740 5740
5689 5689 5690 5690 5691 5692 5693 5693 5694 5695 5697 5697 5699 5702 5705 5708 5712 5717 5721 5723 5724 5729 5731 5735 5740 5745 5746 5747 5749 5749 5749 5750 5751 5751 5751 5751 5750 5749 5748 5747 5746 5745 5744 5743 5742 5741 5740 5738 5737 5735 5734 5734 5734 5733
5679 5680 5681 5682 5684 5684 5684 5684 5686 5687 5689 5690 5692 5695 5698 5703 5707 5711 5713 5716 5719 5722 5726 5733 5737 5738 5743 5744 5746 5746 5747 5748 5748 5749 5748 5748 5747 5746 5745 5745 5743 5742 5741 5740 5739 5738 5736 5734 5733 5731 5730 5729 5728 5727
5670 5672 5673 5674 5676 5677 5676 5677 5678 5680 5681 5682 5685 5688 5692 5695 5699 5702 5706 5709 5714 5718 5723 5728 5730 5735 5739 5740 5742 5744 5745 5745 5746 5746 5745 5745 5744 5744 5743 5742 5740 5739 5738 5736 5735 5733 5732 5730 5729 5727 5726 5725 5723 5722
5661 5663 5664 5666 5667 5668 5668 5669 5670 5672 5674 5676 5679 5682 5686 5689 5692 5696 5699 5702 5707 5713 5719 5723 5729 5733 5736 5736 5739 5741 5741 5742 5743 5743 5742 5742 5742 5741 5740 5739 5737 5736 5734 5733 5731 5730 5728 5726 5724 5723 5721 5719 5718 5717
5652 5654 5655 5657 5659 5660 5660 5660 5661 5663 5665 5668 5672 5677 5679 5682 5685 5689 5694 5699 5704 5709 5714 5719 5723 5726 5732 5733 5735 5738 5738 5739 5740 5740 5740 5740 5739 5738 5737 5736 5734 5732 5730 5728 5727 5725 5723 5721 5719 5717 5715 5714 5713 5712
5644 5646 5647 5649 5650 5652 5653 5653 5654 5655 5658 5663 5667 5670 5673 5677 5682 5686 5690 5694 5699 5704 5708 5715 5720 5722 5726 5729 5732 5734 5735 5735 5736 5736 5736 5736 5736 5735 5733 5732 5730 5728 5727 5725 5723 5720 5718 5715 5713 5711 5709 5707 5706 5705
5636 5638 5640 5641 5643 5643 5644 5646 5647 5650 5654 5657 5661 5663 5668 5672 5676 5680 5685 5690 5695 5698 5705 5711 5715 5719 5721 5725 5728 5730 5731 5732 5732 5732 5732 5732 5731 5731 5729 5727 5725 5723 5721 5720 5718 5716 5713 5710 5708 5705 5703 5702 5700 5698
5629 5631 5632 5634 5634 5636 5635 5638 5642 5645 5649 5652 5656 5662 5665 5668 5672 5677 5683 5687 5691 5698 5703 5708 5711 5714 5718 5721 5724 5726 5727 5728 5729 5728 5727 5728 5728 5725 5723 5722 5719 5718 5716 5713 5712 5710 5708 5705 5702 5701 5697 5695 5694 5692
5622 5624 5627 5627 5627 5628 5633 5635 5638 5642 5646 5650 5654 5658 5661 5665 5668 5673 5678 5682 5687 5691 5696 5702 5706 5710 5714 5717 5720 5721 5723 5724 5724 5722 5723 5724 5723 5721 5719 5717 5715 5713 5710 5708 5706 5704 5702 5699 5696 5695 5692 5689 5688 5686
5616 5619 5621 5622 5624 5627 5631 5633 5637 5640 5643 5649 5652 5657 5661 5663 5664 5668 5672 5679 5685 5685 5695 5698 5703 5706 5710 5714 5715 5717 5718 5718 5720 5719 5718 5719 5716 5715 5713 5712 5709 5707 5705 5702 5700 5698 5696 5692 5690 5688 5686 5683 5680 5679
5610 5614 5616 5619 5621 5625 5629 5631 5635 5639 5643 5646 5649 5654 5658 5661 5664 5668 5668 5672 5676 5681 5687 5691 5698 5703 5706 5709 5710 5711 5713 5714 5714 5714 5712 5712 5710 5709 5707 5704 5702 5700 5697 5694 5692 5691 5689 5687 5684 5682 5680 5678 5674 5671
5605 5609 5613 5617 5618 5622 5626 5629 5633 5636 5640 5645 5648 5652 5655 5657 5661 5666 5670 5674 5676 5680 5684 5691 5698 5701 5701 5703 5707 5708 5709 5709 5709 5707 5706 5706 5705 5703 5700 5697 5694 5692 5689 5687 5684 5682 5681 5681 5678 5675 5672 5670 5667 5666
5602 5607 5611 5614 5618 5621 5625 5628 5631 5635 5639 5642 5645 5648 5652 5654 5658 5663 5664 5666 5672 5677 5682 5687 5692 5696 5698 5699 5700 5696 5696 5699 5702 5701 5699 5697 5696 5695 5693 5689 5686 5683 5681 5678 5675 5674 5672 5673 5670 5669 5668 5664 5661 5657
5601 5606 5610 5613 5617 5620 5624 5628 5631 5634 5636 5638 5643 5647 5650 5652 5655 5660 5664 5667 5671 5675 5680 5683 5688 5691 5691 5694 5696 5693 5698 5694 5695 5694 5693 5690 5687 5685 5683 5680 5677 5674 5670 5666 5665 5664 5664 5664 5662 5659 5657 5656 5654 5651
5601 5605 5609 5613 5616 5620 5624 5627 5630 5633 5636 5640 5641 5644 5648 5651 5654 5657 5661 5665 5670 5673 5676 5678 5682 5684 5686 5688 5688 5680 5684 5688 5688 5686 5683 5681 5679 5677 5675 5670 5668 5664 5661 5658 5656 5655 5655 5654 5654 5651 5650 5649 5647 5645
5601 5605 5609 5612 5616 5619 5622 5626 5629 5632 5636 5637 5640 5643 5646 5649 5651 5654 5656 5660 5664 5667 5670 5673 5676 5677 5678 5680 5681 5681 5679 5678 5676 5672 5667 5671 5670 5666 5664 5661 5659 5655 5654 5649 5648 5647 5646 5646 5646 5644 5642 5642 5639 5637
5603 5607 5610 5612 5615 5619 5622 5626 5629 5632 5635 5637 5639 5641 5644 5647 5649 5651 5653 5656 5659 5661 5665 5668 5669 5670 5671 5673 5673 5672 5672 5670 5669 5663 5658 5661 5661 5657 5656 5654 5650 5648 5646 5645 5643 5640 5638 5638 5637 5636 5635 5633 5632 5629
5603 5606 5610 5613 5616 5620 5623 5627 5630 5633 5636 5637 5640 5641 5643 5646 5647 5649 5651 5653 5655 5659 5662 5664 5665 5665 5667 5667 5667 5667 5665 5665 5664 5660 5656 5653 5651 5648 5645 5642 5639 5638 5637 5636 5634 5632 5631 5629 5629 5628 5626 5625 5624 5622
5604 5607 5610 5613 5617 5621 5624 5627 5631 5633 5634 5636 5638 5639 5643 5644 5644 5647 5647 5645 5649 5654 5658 5661 5660 5662 5663 5662 5662 5662 5659 5658 5656 5654 5653 5651 5646 5640 5639 5636 5633 5631 5630 5627 5624 5623 5622 5620 5620 5620 5618 5613 5613 5613
5605 5607 5611 5614 5617 5622 5625 5628 5630 5632 5635 5637 5639 5640 5641 5643 5645 5643 5644 5644 5637 5650 5653 5656 5657 5658 5658 5658 5658 5657 5656 5654 5651 5648 5646 5642 5639 5635 5631 5628 5625 5622 5619 5617 5616 5613 5612 5609 5608 5611 5611 5608 5603 5603
5606 5608 5612 5615 5619 5623 5625 5628 5630 5633 5635 5637 5637 5638 5634 5641 5645 5645 5646 5646 5648 5650 5653 5654 5654 5654 5653 5652 5651 5650 5648 5646 5644 5641 5638 5634 5631 5628 5625 5621 5618 5615 5612 5609 5609 5604 5601 5604 5605 5605 5602 5601 5597 5594
5607 5609 5612 5616 5620 5623 5625 5628 5630 5632 5634 5636 5637 5637 5641 5644 5647 5648 5650 5650 5650 5650 5650 5650 5649 5649 5649 5647 5645 5644 5642 5639 5636 5635 5632 5630 5627 5624 5620 5616 5613 5610 5607 5603 5602 5601 5600 5599 5597 5596 5594 5594 5593 5592
5610 5613 5616 5619 5622 5625 5626 5629 5631 5633 5635 5635 5637 5639 5641 5643 5644 5646 5647 5647 5648 5647 5647 5647 5646 5645 5645 5644 5640 5639 5637 5635 5633 5630 5628 5625 5621 5618 5615 5612 5609 5606 5603 5600 5598 5595 5593 5592 5590 5589 5588 5587 5587 5587
5613 5615 5618 5620 5622 5625 5627 5629 5631 5629 5632 5632 5637 5639 5640 5642 5642 5645 5645 5646 5646 5645 5645 5644 5643 5642 5640 5639 5639 5636 5634 5632 5630 5627 5624 5622 5618 5615 5612 5609 5606 5603 5600 5597 5595 5592 5590 5588 5586 5584 5583 5583 5582 5582
5615 5617 5620 5621 5623 5625 5628 5630 5632 5634 5636 5638 5639 5638 5638 5641 5642 5644 5644 5644 5644 5643 5642 5641 5641 5640 5639 5638 5636 5634 5632 5630 5627 5624 5621 5619 5616 5612 5609 5606 5603 5600 5598 5595 5593 5590 5588 5586 5584 5582 5582 5580 5579 5578